Location: Lake Lucerne
(45.5315°N, 88.8489°W)
Time: 23:41:09
(UTC-05:00)

ACS3 Solar Sail - Visible Passes

Search period start: 17 September 2024 00:00
Search period end: 27 September 2024 00:00
Orbit: 971 x 1035 km, 97.4° (Epoch: 17 September)

Date Brightness Start Highest point End Pass type
(mag) Time Alt. Az. Time Alt. Az. Time Alt. Az.
17 Sep 1.8 20:54:32 23° SSE 20:58:47 77° ENE 21:05:13 10° N visible
17 Sep 4.0 22:39:47 12° SW 22:43:27 19° W 22:47:56 10° NW visible
18 Sep 2.9 19:43:09 10° ESE 19:48:17 26° ENE 19:53:22 10° N visible
18 Sep 2.2 21:28:00 26° S 21:31:47 63° W 21:38:10 10° NNW visible
19 Sep 2.3 20:16:09 16° SE 20:20:50 43° ENE 20:26:50 10° N visible
19 Sep 3.1 22:01:24 21° SW 22:04:54 36° W 22:10:45 10° NNW visible
20 Sep 1.8 20:49:30 24° SSE 20:53:31 74° ENE 20:59:55 10° N visible
20 Sep 3.9 22:34:43 14° SW 22:38:08 20° W 22:42:45 10° NW visible
21 Sep 3.0 19:37:52 10° ESE 19:42:51 25° ENE 19:47:50 10° N visible
21 Sep 2.2 21:22:46 28° S 21:26:19 66° W 21:32:42 10° NNW visible
21 Sep 4.5 23:10:26 10° W 23:11:29 10° W 23:12:34 10° WNW visible
22 Sep 2.4 20:10:45 17° SE 20:15:14 41° ENE 20:21:08 10° N visible
22 Sep 3.1 21:55:58 23° SW 21:59:13 38° W 22:05:08 10° NNW visible
23 Sep 1.8 20:43:54 26° SSE 20:47:42 70° ENE 20:54:03 10° N visible
23 Sep 3.9 22:29:07 15° SW 22:32:15 22° W 22:37:00 10° NW visible
24 Sep 3.0 19:32:03 10° ESE 19:36:54 23° ENE 19:41:43 10° N visible
24 Sep 2.1 21:16:59 30° S 21:20:17 70° W 21:26:41 10° NNW visible
24 Sep 4.4 23:03:33 10° W 23:05:23 11° W 23:07:14 10° WNW visible
25 Sep 2.4 20:04:48 18° SE 20:09:04 39° ENE 20:14:52 10° N visible
25 Sep 2.9 21:50:00 26° SW 21:52:59 40° W 21:58:56 10° NNW visible
26 Sep 1.8 20:37:45 27° SSE 20:41:20 66° ENE 20:47:38 10° N visible
26 Sep 3.8 22:22:57 17° WSW 22:25:47 23° W 22:30:42 10° NW visible
